Regional Weather Roundup
Issued by NWS

Home | Current Version | Previous Version | Text Only | Print | Product List | Glossary On
Versions: 1 2 3 4 5 6 7 8 9 10 11 12 13 14 15 16 17 18 19 20 21 22 23 24 25 26 27 28 29 30 31 32 33 34 35 36 37 38 39 40 41 42 43 44 45 46 47 48 49 50
000
ASUS44 KJAN 301320
RWRMS

MISSISSIPPI HOURLY WEATHER ROUNDUP
NATIONAL WEATHER SERVICE JACKSON MS
800 AM CDT SAT JUL 30 2016

NOTE: "FAIR: INDICATES FEW OR NO CLOUDS BELOW 12,000 FEET WITH NO
SIGNIFICANT WEATHER AND/OR OBSTRUCTIONS TO VISIBILITY.

MSZ001>002-007>008-010>013-018>021-025>028-034>036-301400-
NORTHWEST MISSISSIPPI

CITY           SKY/WX    TMP DP  RH WIND       PRES   REMARKS
CLEVELAND      FAIR      77  77 100 W5        30.01R
GREENWOOD      SUNNY     80  74  81 SW7       30.01R
GREENVILLE     CLOUDY    79  75  87 SW5       30.00R
OXFORD         FAIR      73  72  94 SW3       30.03R
WINONA         FAIR      78  75  91 SW6       30.03R
$$

MSZ003>006-009-014>017-022>024-029>033-037>039-301400-
NORTHEAST MISSISSIPPI

CITY           SKY/WX    TMP DP  RH WIND       PRES   REMARKS
ABERDEEN       FAIR      79  61  53 SW3       30.03R
COLUMBUS AFB   SUNNY     80  76  89 W6        30.01S
GOLDN TRIANGLE MOSUNNY   81  72  74 CALM      30.01S
TUPELO         PTSUNNY   76  71  85 CALM      30.01R
$$

MSZ040-058-301400-
CENTRAL MISSISSIPPI

CITY           SKY/WX    TMP DP  RH WIND       PRES   REMARKS
JACKSON INTL   SUNNY     78  73  84 SW3       30.05R
JACKSON HAWKNS SUNNY     79  73  82 W8        30.05R
MADISON        FAIR      79  72  78 W6        30.04S
MERIDIAN KEY   SUNNY     81  73  76 SW6       30.04S
MERIDIAN NAS   SUNNY     81  71  71 W7        30.04S
$$

MSZ059>079-301400-
SOUTH MISSISSIPPI

CITY           SKY/WX    TMP DP  RH WIND       PRES   REMARKS
BROOKHAVEN     FAIR     N/A N/A N/A W8        30.08R
HATTIESBURG    SUNNY     80  74  81 W5        30.05R
MCCOMB         SUNNY     78  74  87 W6        30.06R
NATCHEZ        SUNNY     81  73  78 W3        30.06R
PINE BELT      SUNNY    N/A N/A N/A W5        30.07R
$$

MSZ080>082-301400-
COASTAL MISSISSIPPI

CITY           SKY/WX    TMP DP  RH WIND       PRES   REMARKS
BAY ST LOUIS   SUNNY     79  73  83 CALM      30.04R
BILOXI         SUNNY     84  79  84 VRB6      30.04R HX  95
PASCAGOULA     SUNNY     82  79  90 VRB3      30.04R HX  92
GULFPORT       SUNNY     82  76  81 W5        30.04R
$$

LAZ007>009-015>016-023>026-301400-
NORTHEAST LOUISIANA

CITY           SKY/WX    TMP DP  RH WIND       PRES   REMARKS
BASTROP        FAIR      80  76  87 SW6       30.04R
TALLULAH/VBURG SUNNY     78  75  90 CALM      30.03S
VIDALIA        FAIR      77  75  93 CALM      30.08R
$$




USA.gov is the U.S. government's official web portal to all federal, state and local government web resources and services.